www.pogodaiklimat.ru

Погода и климат >> Архив погоды >> Китай >> Nanyue


ПОГОДА в Nanyue

  • Прогноз погоды в Nanyue
  • Монитор погоды в Nanyue
  • Климат города

АРХИВ ПОГОДЫ в Nanyue

Время (UTC), дата Ветер
(напр.,м/с)
 
Видим.   Явления Облачность Т
(С)
Тd
(С)
f
(%)
Тe
(С)
Тes
(С)
Комфортность P
(гПа)
Po
(гПа)
Тmin
(С)
Tmax
(С)
R
(мм)
R24
(мм)
S
(см)
18 13.08 ЮЗ 9
{18}
<100 м туман ?/? +20.3 +20.3 100 +24 +24 комфорт 1006.4 1006.0 +23.9 4
21 13.08 ЮЗ 11 3300 м н/о +20.1 +20.1 100 +23 +23 комфорт 1006.2 1006.0
00 14.08 ЮЗ 13
{22}
<100 м слабый ливневой дождь ?/? +20.0 +20.0 100 +23 +23 комфорт 1007.0 1007.0 4
03 14.08 З 8 100 м туман {ливн. осадки} ?/? +19.7 +19.7 100 +22 +22 комфорт 1008.2 1008.0
06 14.08 ЮЗ 6
{20}
100 м туман {ливн. осадки} 10/10 50 м
[]
+20.2 +20.2 100 +24 +24 комфорт 1007.3 1007.0 +19.3 0.6
09 14.08 ЮЗ 7 30 км {туман} 10/10 50 м
[]
+20.6 +19.4 93 +25 +25 комфорт 1007.3 1007.0
12 14.08 З 9 100 м слабый ливневой дождь {туман} ?/? +20.1 +20.1 100 +23 +23 комфорт 1008.2 1008.0 0.1
18 14.08 ЮЗ 7 100 м в посл. час туман ?/? +19.3 +19.3 100 +21 +21 комфорт 1008.3 1008.0 +21.7 20
21 14.08 З 5 30 км в посл. час туман ?/? +19.0 +19.0 100 +20 +20 1008.0 1008.0
00 15.08 ЮЗ 4 30 км 9/9 100 м
[]
+20.4 +19.9 97 +25 +25 комфорт 1009.1 1009.3 3
03 15.08 З 3 2600 м 10/10 100 м
[]
+22.1 +20.6 91 +28 +28 душно 1009.7 1010.0
06 15.08 ЮЗ 4 100 м слабый ливневой дождь {туман} ?/? +20.5 +20.5 100 +25 +25 комфорт 1008.4 1008.0 +17.5 11
09 15.08 ЮЗ 7 29 км в посл. час ливневой дождь {туман} 9/9 50 м
[]
+20.4 +18.9 91 +24 +24 комфорт 1007.1 1007.0
12 15.08 ЮЗ 5 30 км в посл. час туман {ливн. осадки} 10/10 50 м
[]
+18.3 +18.1 99 +18 +18 1007.8 870.7 1
18 15.08 ЮЗ 11 30 км {туман} ?/? +18.2 +16.7 91 +17 +17 1007.8 1008.0 +23.8 4
21 15.08 З 11
{18}
30 км ?/? +19.7 +17.1 85 +21 +21 комфорт 1007.4 1007.0
00 16.08 ЮЗ 9
{18}
30 км 10/10 200 м
[]
+19.5 +18.5 94 +21 +21 комфорт 1009.3 1009.0 4
03 16.08 ЮЗ 6 30 км 9/9 300 м
[]
+21.0 +19.3 90 +26 +26 душно 1010.1 1010.0
06 16.08 ЮЗ 5 30 км 9/9 200 м
[]
+21.5 +19.2 87 +26 +27 душно 1009.0 1009.0 +18.0
09 16.08 З 7 18 км 8/8 50 м
[]
+21.6 +20.8 95 +27 +28 душно 1007.5 1008.0
12 16.08 З 11
{19}
29 км 10/10 200 м
[]
+20.7 +19.7 94 +24 +24 комфорт 1008.6 1009.0
18 16.08 Ю 8 200 м туман ?/? +20.6 +20.6 100 +25 +25 комфорт 1008.0 1008.0 +22.9
21 16.08 ЮЗ 8 24 км ?/? +20.4 +19.6 95 +24 +24 комфорт 1008.6 1009.0
00 17.08 Ю 6 13 км 8/8 300 м
[]
+20.6 +20.3 98 +25 +25 комфорт 1010.4 1010.0
03 17.08 З 4 30 км 8/8 200 м
[]
+23.3 +19.7 80 +30 +33 очень
душно
1011.1 1011.0
06 17.08 З 2 20 км 9/9 50 м
[]
+25.1 +20.8 77 +31 +33 очень
душно
1009.2 1032.2 +19.9
09 17.08 З 5 26 км 9/9 50 м
[]
+25.2 +20.7 76 +31 +32 очень
душно
1007.7 1008.0
12 17.08 Ю 8 11 км в посл. час туман 8/8 50 м
[]
+21.3 +19.2 88 +26 +26 душно 1009.7 873.0
18 17.08 Ю 10 100 м туман ?/? +20.0 +20.0 100 +23 +23 комфорт 1008.4 872.6 +25.4
21 17.08 ЮЗ 8
{18}
30 км ?/? +20.6 +18.7 89 +24 +24 комфорт 1009.2 1009.0
00 18.08 ЮЗ 8
{18}
23 км 9/9 300 м
[]
+20.4 +19.4 94 +24 +24 комфорт 1011.1 874.2
03 18.08 ЮЗ 6 30 км 9/9 300 м
[]
+23.8 +19.5 77 +29 +30 душно 1011.7 829.4
06 18.08 З 4 30 км 8/8 300 м
[]
+25.6 +20.8 75 +32 +34 очень
душно
1010.5 874.5 +19.7
09 18.08 З 4 24 км 6/6 300 м
[]
+25.4 +20.9 76 +32 +33 очень
душно
1009.2 1009.0
12 18.08 Ю 9 11 км 3/3
[]
+21.9 +21.4 97 +28 +28 душно 1010.8 1011.0
18 18.08 ЮЗ 11
{17}
30 км ?/? +21.4 +19.3 88 +26 +26 душно 1008.7 1009.0 +26.1
21 18.08 ЮЗ 11 30 км ?/? +21.5 +18.1 81 +26 +26 душно 1008.5 1009.0
00 19.08 ЮЗ 11
{18}
30 км 9/9
[]
+21.8 +18.2 80 +27 +27 душно 1010.5 1011.0
03 19.08 ЮЗ 10
{19}
30 км 5/5 50 м
[]
+24.5 +19.6 74 +30 +30 очень
душно
1010.5 1011.0
06 19.08 З 10
{19}
29 км 9/9 50 м
[]
+25.3 +19.4 70 +31 +31 очень
душно
1009.0 1009.0 +21.0
09 19.08 ЮЗ 9 28 км 6/6 100 м
[]
+25.6 +20.0 71 +31 +32 очень
душно
1007.6 1008.0
12 19.08 З 8 24 км 1/1
[]
+23.1 +19.9 82 +30 +30 очень
душно
1008.3 1008.0
18 19.08 ЮЗ 9
{17}
29 км ?/? +22.1 +18.7 81 +27 +27 душно 1006.7 1007.0 +26.1
21 19.08 З 9
{17}
24 км ?/? +21.1 +18.9 87 +25 +25 комфорт 1006.9 1007.0
00 20.08 ЮЗ 10
{17}
25 км 6/6
[]
+22.0 +19.0 83 +27 +27 душно 1008.7 1009.0
03 20.08 ЮЗ 5 29 км 3/3 200 м
[]
+25.1 +20.4 75 +31 +38 очень
душно
1008.7 1009.0
06 20.08 З 5 26 км 8/8 200 м
[]
+25.6 +20.4 73 +32 +34 очень
душно
1006.9 1007.0 +21.1
09 20.08 З 2 22 км 6/6 200 м
[]
+27.2 +21.3 70 +34 +36 очень
душно
1005.5 1006.0
12 20.08 Ю 2 20 км 1/1
[]
+23.0 +20.0 83 +30 +30 очень
душно
1006.6 871.0

 

Местоположение метеостанции Nanyue (Китай): широта 27.30 долгота 112.70 высота над уровнем моря 1268 м.

В архиве по умолчанию представлена погода в Nanyue за последнюю неделю. Архивные данные за месяц целиком и за предыдущие месяцы, начиная с января 2011 года, Вы можете получить, выбрав интересующий диапазон дат из раскрывающегося списка и нажав кнопку "Ввод!".

Внимание! Время в таблицах - всемирное. Для получения местного времени необходимо прибавить поправку, которая в Nanyue равна 8 ч.

Смотрите также архив погоды в соседних городах и на ближайших метеорологических станциях:

Погода в Changsha (Китай) (105 км)
Погода в Shaoyang (Китай) (123 км)
Погода в Lingling (Китай) (161 км)
Погода в Chenzhou (Китай) (170 км)
Погода в Yichun (Китай) (175 км)
Погода в Wugang (Китай) (215 км)
Погода в Changde (Китай) (219 км)
Погода в Jian (Китай) (224 км)
Погода в Yueyang (Китай) (234 км)
Погода в Yuanling (Китай) (261 км)

Пояснения к столбцам:

Ветер - указаны скорость ветра в м/с - средняя за 10 мин, порывы в срок и между сроками (в фигурных скобках) и направление, откуда дует ветер: С - северный, СВ - северо-восточный, В - восточный, ЮВ - юго-восточный, Ю - южный, ЮЗ - юго-западный, З - западный, СЗ - северо-западный.
Видимость - горизонтальная дальность видимости в метрах или километрах. При видимости от 1 до 10 км при отсутствии осадков обычно наблюдается дымка, при ухудшении видимости до 1 км и менее - туман. В сухую погоду видимость может ухудшаться дымом, пылью или мглою.
Явления - указаны атмосферные явления, наблюдавшиеся в срок или в последний час перед сроком; фигурными скобками обозначены явления, наблюдавшиеся между сроками (за 1-3 часа до срока); квадратными скобками обозначены град или гололедные отложения с указанием их диаметра в мм.
Облачность - указаны через наклонную черту общая и нижняя облачность в баллах и высота нижней границы облаков в метрах; квадратными скобками обозначены формы облаков: Ci - перистые, Cs - перисто-слоистые, Cc - перисто-кучевые, Ac - высококучевые, As - высокослоистые, Sc - слоисто-кучевые, Ns - слоисто-дождевые, Cu - кучевые, Cb - кучево-дождевые. Подробнее классификацию облаков см. в Атласе облаков (PDF).
T - Температура воздуха - температура, измеренная на высоте 2 м над землей.
Td - Температура точки росы - температура, при понижении до которой содержащийся в воздухе водяной пар достигнет насыщения.
f - Относительная влажность воздуха - влажноcть воздуха, измеренная на высоте 2 м над землей.
Te - Эффективная температура - температура, которую ощущает одетый по сезону человек в тени. Характеристика душности погоды. При расчете учитывается влияние влажности воздуха и скорости ветра на теплоощущения человека.
Tes - Эффективная температура на солнце - температура, которую ощущает человек, с поправкой на солнечный нагрев. Характеристика знойности погоды. Зависит от высоты солнца над горизонтом, облачности и скорости ветра. Ночью, в пасмурную погоду, а также при ветре 12 м/с и более поправка равна нулю.
P - Атмосферное давление - приведенное к уровню моря атмосферное давление.
Po - Атмосферное давление - измеренное на уровне метеостанции атмосферное давление.
Tmin - Минимальная температура - минимум температуры воздуха на высоте 2 м над землей.
Tmax - Максимальная температура - максимум температуры воздуха на высоте 2 м над землей.
R - Количество осадков - Количество выпавших осадков за период времени, мм. При наведении курсора мыши на число - период времени, за который выпало указанное количество осадков.
R24 - Количество осадков - Количество выпавших осадков за 24 часа, мм.
S - Снежный покров - Высота снежного покрова, см. При наведении курсора мыши на число - состояние снежного покрова и степень покрытия местности в баллах.